Retour au catalogue

COSMOS 2251 DEB

ActifLEO
NORAD 34276·DEBRIS·🇷🇺 Russia

Lancé Jun 16, 1993 depuis Plesetsk Cosmodrome

Loading…

Prochains Passages (prochaines 24 heures)

TLE

FraisSource: Space-Track

Époque: Sep 14, 2026, 19:38 UTC

1 34276U 93036LW  26257.81820620  .00001497  00000-0  32658-3 0  9990
2 34276  74.0199 279.7084 0022703 348.0445 186.4641 14.58643772926164

Suivez COSMOS 2251 DEB en temps réel avec AllMySat

Download on the App Store